[[{"header":{"parameterUnit":"m.s-1","parameterCategory":1,"la1":30.2991,"la2":30.254,"lo1":-89.0895,"lo2":-89.0444,"dy":0.0017,"dx":0.0017,"nx":28,"ny":28,"refTime":"2024-06-07T09:00:00:Z","depth":0,"parameterNumber":2,"parameterNumberName":"U-component_of_WINDS"},"data":[0,0,0,0,0,0,0,0,0,0,0,0,0,0,0,0,0,0,0,0,0,0,0,0,0,0,0,0,0,0,0,0,0,0,0,0,0,0,0,0,0,0,0,0,0,0,0,0,0,0,0,0,0,0,0,0,0,0,0.1599,0.1601,0,0.1699,0.1701,0.1702,0.1749,0.1749,0.1749,0.1749,0.1854,0.1856,0.1859,0,0,0,0,0,0,0,0,0,0,0,0,0,0.1451,0.1454,0.1599,0.1601,0.1602,0.1699,0.1701,0.1702,0.1749,0.1749,0.1749,0.1749,0.1853,0.1856,0.186,0,0,0,0,0,0,0,0,0,0,0,0,0,0.153,0.1455,0.1599,0.1637,0.1642,0.1699,0.1701,0.1702,0.1749,0.1749,0.1749,0.1749,0.1852,0.1856,0.186,0.1888,0,0,0.1873,0.1875,0,0,0,0,0,0,0,0,0.1525,0.1535,0.163,0.1635,0.164,0.1712,0.1687,0.1765,0.1749,0.1709,0.1749,0.1749,0.1807,0.1815,0.1834,0.1893,0.1897,0.1873,0.1876,0.1878,0.1879,0,0,0,0,0,0,0,0.152,0.1531,0.1639,0.1632,0.1637,0.165,0.1661,0.1702,0.1757,0.1712,0.1716,0.1727,0.1809,0.1829,0.1836,0.1899,0.1873,0.1877,0.188,0.1881,0.1986,0.1986,0,0,0,0,0,0,0.1508,0.1526,0.1636,0.1642,0.1581,0.1653,0.1665,0.1689,0.1757,0.1767,0.1727,0.1729,0.1822,0.1831,0.184,0.1878,0.1878,0.1882,0.1884,0.1986,0.1986,0.1986,0,0,0,0,0,0,0.1505,0.1517,0.1632,0.1585,0.1601,0.1655,0.1682,0.1691,0.1711,0.1768,0.1778,0.1737,0.1823,0.1834,0.1876,0.1882,0.1884,0.1887,0.1985,0.1986,0.1986,0.1952,0,0,0,0,0,0,0.15,0.1516,0.1526,0.1585,0.1603,0.1665,0.1682,0.1693,0.1718,0.1721,0.178,0.179,0.1823,0.1869,0.188,0.1888,0.1891,0.1985,0.1986,0.1986,0.1953,0.1951,0.195,0,0,0,0,0,0.1495,0.1513,0.1527,0.154,0.1617,0.1665,0.1675,0.1713,0.1718,0.173,0.1766,0.1788,0.1879,0.1873,0.1885,0.1895,0.1985,0.1985,0.1986,0.1954,0.1952,0.195,0,0,0,0,0,0,0.1455,0.1522,0.1537,0.1575,0.1614,0.1673,0.1689,0.171,0.1748,0.175,0.1796,0.1808,0.1846,0.1874,0.1866,0.1925,0.1934,0.1937,0.1905,0.1904,0.1902,0.1895,0.1894,0,0,0,0,0,0.145,0.1482,0.154,0.1568,0.1586,0.1634,0.1656,0.1681,0.1724,0.1741,0.178,0.1821,0.1859,0.1883,0.1921,0.1957,0.1971,0.197,0.1968,0.1967,0.1969,0.1991,0.1991,0.1988,0.1988,0.1988,0,0,0.1441,0.1482,0.15,0.156,0.1594,0.1627,0.1647,0.1681,0.1707,0.1746,0.1787,0.1817,0.1866,0.1905,0.1924,0.193,0.1973,0.1967,0.1966,0.1969,0.1991,0.1991,0.1991,0.1988,0.1988,0.1988,0,0,0.1442,0.1476,0.1503,0.1536,0.1585,0.1617,0.1623,0.1679,0.17,0.1742,0.1772,0.1803,0.1867,0.1901,0.1926,0.1939,0.1961,0.195,0.1943,0.1963,0.1963,0.1964,0.1969,0.197,0.1952,0.1952,0.1952,0,0.1425,0.1476,0.1515,0.1547,0.1573,0.1609,0.1638,0.1667,0.1727,0.1744,0.175,0.1831,0.1867,0.1914,0.1917,0.1936,0.1945,0.1944,0.196,0.1961,0.1962,0.1967,0.1969,0.1951,0.1951,0.1951,0.1951,0,0.1453,0.1487,0.1503,0.1559,0.1587,0.1617,0.1661,0.1685,0.1708,0.1739,0.1781,0.1825,0.1872,0.1885,0.1908,0.1936,0.1938,0.1951,0.1961,0.196,0.1966,0.1968,0.1949,0.1949,0.195,0.195,0,0,0.1432,0.1508,0.1514,0.1539,0.1596,0.1624,0.1656,0.1702,0.1721,0.1761,0.179,0.1843,0.1855,0.1884,0.1911,0.1929,0.1937,0.1941,0.1942,0.1939,0.1971,0.1961,0.1962,0.1952,0.1952,0.1953,0.1967,0,0.1441,0.1499,0.1535,0.1579,0.1612,0.1646,0.1674,0.1713,0.1742,0.1775,0.1808,0.1845,0.1859,0.1877,0.1896,0.1932,0.1944,0.1932,0.1979,0.198,0.1966,0.1965,0.1955,0.1966,0.1969,0.197,0.197,0,0.146,0.1498,0.1545,0.1598,0.1613,0.1638,0.1683,0.1713,0.1757,0.1778,0.1809,0.1837,0.1872,0.1879,0.1929,0.1919,0.1941,0.1962,0.1963,0.1969,0.1975,0.1972,0.1971,0.1973,0.1974,0.1974,0.1973,0,0.144,0.1503,0.154,0.1561,0.1624,0.164,0.1667,0.1711,0.1737,0.1776,0.1793,0.1836,0.186,0.1893,0.1931,0.1932,0.1978,0.1987,0.1996,0.1995,0.2005,0.2004,0.2007,0.2017,0.2017,0.2017,0.2017,0,0.1447,0.1474,0.1532,0.1554,0.1586,0.1627,0.1658,0.1688,0.1727,0.1756,0.1789,0.1816,0.1865,0.1898,0.1928,0.1965,0.1976,0.1994,0.2001,0.1991,0.1989,0.2006,0.2007,0.2018,0.2018,0.2018,0.2018,0,0.1431,0.147,0.1512,0.1568,0.1583,0.1604,0.1652,0.1676,0.1707,0.1744,0.1755,0.1804,0.1845,0.1886,0.1941,0.1962,0.1998,0.2008,0.1983,0.1987,0.1994,0.1993,0.2009,0.2014,0.202,0.202,0.202,0,0.1432,0.1454,0.1513,0.1534,0.156,0.1595,0.1621,0.1662,0.1688,0.174,0.1757,0.18,0.1836,0.19,0.1941,0.1983,0.1995,0.1998,0.2002,0.1991,0.1996,0.1994,0.1997,0.1997,0.1996,0.1996,0.1996,0,0.1432,0.145,0.1486,0.1528,0.1558,0.1593,0.163,0.1646,0.1694,0.1722,0.1763,0.1791,0.1847,0.189,0.1937,0.1966,0.1989,0.1994,0.1999,0.1989,0.1973,0.1982,0.1979,0.1994,0.1994,0.1994,0.1994,0.1994,0.1425,0.1446,0.1491,0.1529,0.1561,0.1594,0.1619,0.1653,0.1688,0.1737,0.1759,0.1801,0.1845,0.1911,0.1939,0.1973,0.1979,0.1985,0.1987,0.1988,0.1986,0.1967,0.1981,0.1981,0.1982,0.1982,0.1982,0,0.1427,0.1457,0.1492,0.1542,0.1572,0.1591,0.1632,0.1657,0.1693,0.1732,0.1767,0.1815,0.1856,0.19,0.1944,0.1962,0.1974,0.1973,0.1972,0.1978,0.1977,0.1969,0.1962,0.1962,0.1962,0.1962,0.1962,0.1962,0.1431,0.1468,0.1491,0.1544,0.1575,0.1615,0.1637,0.1669,0.17,0.1752,0.1786,0.1814,0.1855,0.1903,0.1941,0.1953,0.1968,0.1963,0.1979,0.1977,0.1978,0.198,0.1972,0.1966,0.1966,0.1977,0.1977,0.1977]},{"header":{"parameterUnit":"m.s-1","parameterCategory":1,"la1":30.2991,"la2":30.254,"lo1":-89.0895,"lo2":-89.0444,"dy":0.0017,"dx":0.0017,"nx":28,"ny":28,"refTime":"2024-06-07T09:00:00:Z","depth":0,"parameterNumber":3,"parameterNumberName":"V-component_of_WINDS"},"data":[0,0,0,0,0,0,0,0,0,0,0,0,0,0,0,0,0,0,0,0,0,0,0,0,0,0,0,0,0,0,0,0,0,0,0,0,0,0,0,0,0,0,0,0,0,0,0,0,0,0,0,0,0,0,0,0,0,0,0.3729,0.3729,0,0.3739,0.3739,0.3739,0.3716,0.3716,0.3715,0.3714,0.3724,0.3725,0.3726,0,0,0,0,0,0,0,0,0,0,0,0,0,0.3687,0.3688,0.3729,0.3729,0.3729,0.3739,0.3739,0.3739,0.3716,0.3716,0.3715,0.3714,0.3724,0.3725,0.3726,0,0,0,0,0,0,0,0,0,0,0,0,0,0.3702,0.3688,0.3729,0.3719,0.3718,0.3739,0.3739,0.3739,0.3717,0.3716,0.3714,0.3713,0.3723,0.3725,0.3726,0.3757,0,0,0.373,0.3731,0,0,0,0,0,0,0,0,0.3701,0.3703,0.372,0.372,0.3719,0.3725,0.3728,0.3745,0.3717,0.3717,0.3714,0.3713,0.3725,0.3726,0.3731,0.3757,0.3757,0.373,0.3731,0.3732,0.3732,0,0,0,0,0,0,0,0.37,0.3703,0.3733,0.372,0.372,0.3713,0.3714,0.3731,0.3727,0.3717,0.3715,0.3717,0.3725,0.3729,0.3731,0.3758,0.373,0.3732,0.3733,0.3733,0.3805,0.3806,0,0,0,0,0,0,0.3701,0.3702,0.3732,0.3733,0.3707,0.3715,0.3716,0.3724,0.3727,0.3726,0.3718,0.3716,0.3727,0.3729,0.3731,0.3764,0.3732,0.3733,0.3734,0.3804,0.3805,0.3806,0,0,0,0,0,0,0.37,0.3703,0.3732,0.3717,0.372,0.3717,0.3726,0.3725,0.373,0.3728,0.3727,0.3724,0.3727,0.3729,0.3749,0.3764,0.3734,0.3735,0.3803,0.3804,0.3806,0.3832,0,0,0,0,0,0,0.3699,0.3703,0.3716,0.3718,0.3721,0.3751,0.3727,0.3726,0.3732,0.373,0.3733,0.3732,0.3726,0.3747,0.3751,0.3765,0.3736,0.3801,0.3803,0.3805,0.383,0.3834,0.3838,0,0,0,0,0,0.3697,0.3724,0.3717,0.372,0.3737,0.3752,0.3754,0.3747,0.3734,0.3745,0.3743,0.3732,0.3762,0.375,0.3753,0.3769,0.38,0.3803,0.3805,0.3828,0.3833,0.3838,0,0,0,0,0,0,0.3725,0.3724,0.3716,0.3744,0.3748,0.3748,0.3763,0.3754,0.3762,0.3759,0.3749,0.375,0.3771,0.3772,0.3759,0.3796,0.3779,0.3782,0.3795,0.38,0.3804,0.3802,0.3737,0,0,0,0,0,0.3734,0.3747,0.3745,0.377,0.3772,0.3767,0.3774,0.3768,0.3772,0.3773,0.3773,0.3777,0.3787,0.3794,0.3803,0.383,0.3828,0.3842,0.3846,0.3849,0.3852,0.3862,0.3867,0.3814,0.3814,0.3814,0,0,0.3753,0.3754,0.3763,0.3775,0.3778,0.379,0.3769,0.3784,0.3793,0.3776,0.3794,0.3794,0.3797,0.382,0.383,0.3821,0.3866,0.3852,0.3855,0.3856,0.3865,0.387,0.3875,0.3816,0.3815,0.3815,0,0,0.3794,0.3797,0.3816,0.3819,0.3822,0.3818,0.3823,0.3824,0.3822,0.3841,0.3827,0.3837,0.3855,0.3857,0.386,0.3898,0.3887,0.3901,0.3923,0.3933,0.3937,0.3941,0.3951,0.3956,0.3904,0.3904,0.3904,0,0.3817,0.3836,0.3827,0.3842,0.3846,0.3831,0.3848,0.3851,0.3858,0.3861,0.3851,0.3871,0.3872,0.3893,0.3902,0.3907,0.391,0.3901,0.3937,0.3941,0.3944,0.3954,0.3959,0.3906,0.3906,0.3905,0.3905,0,0.3862,0.3875,0.389,0.3895,0.3902,0.3918,0.3911,0.3918,0.391,0.3907,0.3924,0.3925,0.3932,0.3937,0.3931,0.3956,0.395,0.3939,0.3921,0.3951,0.396,0.3964,0.3908,0.3907,0.3907,0.3907,0,0,0.3922,0.392,0.3925,0.3926,0.3927,0.3937,0.3951,0.3958,0.3963,0.3967,0.3977,0.3992,0.398,0.3984,0.3977,0.3987,0.4013,0.3974,0.3974,0.3979,0.4037,0.4044,0.4049,0.4006,0.4006,0.4007,0.4036,0,0.3959,0.3984,0.3975,0.4,0.401,0.3993,0.4005,0.4007,0.4003,0.401,0.4007,0.4015,0.4002,0.4003,0.4012,0.4008,0.4024,0.4006,0.4013,0.4014,0.4011,0.4054,0.4062,0.409,0.404,0.4041,0.4041,0,0.4007,0.4012,0.4037,0.4033,0.4037,0.4048,0.4052,0.406,0.406,0.4056,0.4059,0.4049,0.4061,0.4044,0.4059,0.4047,0.4049,0.4047,0.4048,0.4047,0.4028,0.4052,0.4099,0.4102,0.4047,0.4047,0.4046,0,0.4044,0.4057,0.4072,0.4074,0.4071,0.4078,0.4077,0.4077,0.408,0.4083,0.4085,0.409,0.4092,0.4095,0.4086,0.4075,0.4101,0.4084,0.4097,0.4097,0.4102,0.4102,0.4148,0.4107,0.4107,0.4107,0.4107,0,0.4086,0.4101,0.4088,0.4098,0.4113,0.4103,0.4118,0.4115,0.4114,0.4122,0.4109,0.4116,0.4104,0.411,0.4103,0.4115,0.4117,0.4113,0.411,0.4113,0.4113,0.4113,0.411,0.4108,0.4108,0.4108,0.4107,0,0.4129,0.4121,0.4137,0.4132,0.4131,0.4142,0.4138,0.4145,0.414,0.415,0.4151,0.4143,0.4148,0.414,0.4145,0.414,0.4155,0.4151,0.4155,0.4153,0.4165,0.4163,0.4212,0.4216,0.4175,0.4175,0.4176,0,0.4155,0.4166,0.4162,0.4165,0.4165,0.4172,0.4174,0.4164,0.4167,0.4166,0.4173,0.4178,0.418,0.419,0.4183,0.4186,0.4181,0.4197,0.4181,0.4182,0.4178,0.4177,0.4176,0.42,0.4201,0.4201,0.4202,0,0.4201,0.4196,0.4201,0.4203,0.4207,0.4208,0.4209,0.4213,0.4201,0.4205,0.421,0.4212,0.4216,0.422,0.4221,0.4218,0.4207,0.4207,0.4209,0.4211,0.4212,0.4209,0.4162,0.4205,0.4205,0.4205,0.4205,0.4204,0.4235,0.4243,0.424,0.4244,0.4243,0.4244,0.425,0.4244,0.4248,0.425,0.4244,0.4249,0.4246,0.4246,0.4245,0.4249,0.4241,0.4246,0.4247,0.4247,0.4248,0.4213,0.4249,0.4249,0.4249,0.4249,0.4249,0,0.4278,0.4275,0.4279,0.428,0.4283,0.4272,0.4271,0.4274,0.4279,0.4278,0.428,0.4284,0.4287,0.428,0.4281,0.4285,0.428,0.4286,0.4285,0.4284,0.4256,0.4252,0.429,0.429,0.429,0.429,0.429,0.429,0.4301,0.4312,0.4306,0.4316,0.4313,0.4318,0.4318,0.4317,0.4315,0.4321,0.4322,0.4318,0.4313,0.4314,0.4315,0.4313,0.4313,0.432,0.4316,0.429,0.4286,0.4282,0.4279,0.4321,0.4321,0.4343,0.4343,0.4343]}]]